Weather History for KGRB - November, 2012

Change the Weather History Date:

Sunday, November 11, 2012

  Actual Average Record
Temperature  
Mean Temperature 51 °F 37 °F  
Max Temperature 64 °F 45 °F 68 °F (1964)
Min Temperature 37 °F 29 °F 7 °F (1979)
Degree Days  
Heating Degree Days 14 28  
Month to date heating degree days 277 285  
Since 1 July heating degree days 1069 1111  
Cooling Degree Days 0 0  
Month to date cooling degree days 0 0  
Year to date cooling degree days 786 398  
Moisture  
Dew Point 48 °F    
Average Humidity 78    
Maximum Humidity 96    
Minimum Humidity 60    
Precipitation  
Precipitation 0.84 in 0.07 in 1.66 in (1982)
Month to date precipitation 0.92 0.79  
Year to date precipitation 28.86 26.67  
Snow  
Snow 0.00 in 0.10 in 2.80 in (1933)
Month to date snowfall T 0.6  
Since 1 July snowfall T 0.8  
Since 1 September snowfall T 0.8  
Snow Depth 0.00 in    
Sea Level Pressure  
Sea Level Pressure 29.72 in    
Wind  
Wind Speed 13 mph (SSW)    
Max Wind Speed 25 mph    
Max Gust Speed 31 mph    
Visibility 7 miles    
Events Rain    
T = Trace of Precipitation, MM = Missing Value Source: NWS Daily Summary

Daily Weather History Graph

Daily Weather History Graph

Search for Another Location

Airport or City:

Trip Planner

Search our weather history database for the weather conditions in past years. The results will help you decide how hot, cold, wet, or windy it might be!

Date:

Astronomy

Nov. 11, 2012 Rise Set
Actual Time 6:44 AM CST 4:28 PM CST
Civil Twilight 6:12 AM CST 4:59 PM CST
Nautical Twilight 5:37 AM CST 5:34 PM CST
Astronomical Twilight 5:03 AM CST 6:08 PM CST
Moon 3:52 AM CST (11/11) 2:55 PM CST (11/11)
Length of Visible Light 10h 46m
Length of Day
9h 44m
Waning Crescent, 7% of the Moon is Illuminated
Nov 11
Waning Crescent
Nov 13
New
Nov 20
First Quarter
Nov 28
Full
Dec 6
Last Quarter

Hourly Weather History & Observations

Time (CST) Temp. Windchill Dew Point Humidity Pressure Visibility Wind Dir Wind Speed Gust Speed Precip Events Conditions
12:53 AM 62.1 °F - 48.9 °F 62% 29.77 in 10.0 mi SSW 13.8 mph 24.2 mph N/A   Scattered Clouds
1:53 AM 61.0 °F - 48.9 °F 64% 29.78 in 10.0 mi SSW 13.8 mph 25.3 mph N/A   Partly Cloudy
2:53 AM 60.1 °F - 48.9 °F 67% 29.79 in 10.0 mi SSW 10.4 mph - 0.00 in   Scattered Clouds
3:53 AM 59.0 °F - 50.0 °F 72% 29.79 in 10.0 mi SSW 12.7 mph 23.0 mph 0.00 in Rain Light Rain
4:53 AM 59.0 °F - 48.9 °F 69% 29.79 in 10.0 mi SSW 12.7 mph 20.7 mph 0.00 in   Clear
5:53 AM 60.8 °F - 50.0 °F 68% 29.77 in 10.0 mi South 13.8 mph 20.7 mph N/A   Clear
6:53 AM 60.1 °F - 50.0 °F 69% 29.77 in 10.0 mi South 13.8 mph - N/A   Clear
7:53 AM 61.0 °F - 51.1 °F 70% 29.75 in 10.0 mi South 13.8 mph - N/A   Clear
8:53 AM 62.1 °F - 51.1 °F 67% 29.76 in 10.0 mi South 15.0 mph - N/A   Partly Cloudy
9:53 AM 63.0 °F - 52.0 °F 67% 29.74 in 10.0 mi South 12.7 mph 20.7 mph N/A   Partly Cloudy
10:53 AM 64.0 °F - 53.1 °F 67% 29.73 in 10.0 mi South 12.7 mph 20.7 mph N/A   Mostly Cloudy
11:53 AM 64.0 °F - 53.1 °F 67% 29.67 in 10.0 mi South 19.6 mph 25.3 mph N/A   Scattered Clouds
12:53 PM 63.0 °F - 54.0 °F 72% 29.67 in 8.0 mi South 11.5 mph - 0.01 in Rain Light Rain
1:53 PM 63.0 °F - 53.1 °F 70% 29.64 in 10.0 mi South 10.4 mph - 0.00 in   Overcast
2:45 PM 59.0 °F - 53.6 °F 82% 29.62 in 2.0 mi SSE 12.7 mph - 0.04 in Rain Rain
2:53 PM 59.0 °F - 53.1 °F 81% 29.62 in 6.0 mi SSE 15.0 mph - 0.04 in Rain Light Rain
3:13 PM 57.2 °F - 53.6 °F 88% 29.62 in 2.5 mi SSE 9.2 mph - 0.03 in Rain Rain
3:36 PM 57.2 °F - 53.6 °F 88% 29.62 in 3.0 mi South 12.7 mph - 0.08 in Rain Light Rain
3:49 PM 57.2 °F - 53.6 °F 88% 29.62 in 1.8 mi South 12.7 mph - 0.11 in Rain Heavy Rain
3:53 PM 57.0 °F - 54.0 °F 89% 29.62 in 1.5 mi South 15.0 mph - 0.13 in Rain Rain
4:04 PM 57.2 °F - 53.6 °F 88% 29.62 in 2.0 mi South 13.8 mph - 0.03 in Rain Rain
4:11 PM 55.4 °F - 53.6 °F 94% 29.66 in 3.0 mi West 19.6 mph 31.1 mph 0.04 in Rain Light Rain
4:18 PM 53.6 °F - 50.0 °F 88% 29.66 in 2.0 mi West 13.8 mph 31.1 mph 0.13 in Rain Heavy Rain
4:25 PM 53.6 °F - 50.0 °F 88% 29.67 in 3.0 mi West 9.2 mph - 0.16 in Rain Light Rain
4:53 PM 53.1 °F - 51.1 °F 93% 29.66 in 7.0 mi West 6.9 mph - 0.18 in Rain Light Rain
5:53 PM 53.1 °F - 51.1 °F 93% 29.70 in 5.0 mi South 6.9 mph - 0.09 in Rain Rain
6:53 PM 52.0 °F - 50.0 °F 93% 29.70 in 3.0 mi SW 9.2 mph - 0.15 in Rain Rain
7:17 PM 51.8 °F - 50.0 °F 94% 29.69 in 4.0 mi SSW 9.2 mph - 0.04 in Rain Rain
7:31 PM 51.8 °F - 50.0 °F 94% 29.70 in 5.0 mi SSW 9.2 mph - 0.08 in Rain Rain
7:53 PM 52.0 °F - 48.9 °F 89% 29.70 in 5.0 mi South 11.5 mph - 0.12 in Rain Rain
8:00 PM 51.8 °F - 48.2 °F 88% 29.70 in 5.0 mi South 11.5 mph - 0.01 in Rain Light Rain
8:15 PM 51.8 °F - 48.2 °F 88% 29.69 in 6.0 mi South 11.5 mph - 0.02 in Rain Light Rain
8:39 PM 51.8 °F - 48.2 °F 88% 29.71 in 6.0 mi West 17.3 mph 23.0 mph 0.05 in Rain Light Rain
8:53 PM 46.9 °F - 44.1 °F 90% 29.76 in 6.0 mi West 16.1 mph - 0.05 in Rain Light Rain
9:06 PM 44.6 °F 37.2 °F 42.8 °F 93% 29.76 in 2.0 mi West 17.3 mph 24.2 mph 0.02 in Rain Rain
9:16 PM 44.6 °F 37.8 °F 42.8 °F 93% 29.76 in 4.0 mi West 15.0 mph - 0.03 in Rain Rain
9:53 PM 42.1 °F 35.7 °F 39.9 °F 92% 29.78 in 10.0 mi WSW 11.5 mph - 0.05 in Rain Light Rain
10:23 PM 39.2 °F 30.5 °F 37.4 °F 93% 29.80 in 10.0 mi West 16.1 mph 26.5 mph 0.02 in Rain Light Rain
10:46 PM 39.2 °F 29.6 °F 35.6 °F 87% 29.79 in 10.0 mi West 19.6 mph 24.2 mph 0.02 in Rain Light Rain
10:53 PM 37.9 °F 27.6 °F 34.0 °F 86% 29.80 in 10.0 mi West 20.7 mph 24.2 mph 0.02 in Rain Light Rain
10:56 PM 37.4 °F 27.5 °F 33.8 °F 87% 29.79 in 10.0 mi West 18.4 mph - 0.00 in Rain Light Rain
11:53 PM 37.0 °F 27.4 °F 34.0 °F 89% 29.85 in 10.0 mi West 17.3 mph 23.0 mph 0.00 in   Overcast